{"data":{"norad_id":66966,"epoch":"2026-05-25T03:37:32.745216Z","epoch_age_seconds":65431,"freshness":"FRESH","line1":"1 66966U 25288H   26145.15107344  .00019588  00000+0  71986-3 0  9995","line2":"2 66966  42.9985 311.4272 0001289 270.9217  89.1487 15.27560990 26986","mean_motion":15.2756099,"eccentricity":0.0001289,"inclination_deg":42.9985,"raan_deg":311.4272,"arg_perigee_deg":270.9217,"mean_anomaly_deg":89.1487,"bstar":0.00071986,"rev_number":2698,"period_min":94.267921832699,"perigee_km":482.22160518358,"apogee_km":483.99043363399,"semimajor_km":6861.2430194088,"source":"CELESTRAK","updated_at":"2026-05-25T13:38:21.394293Z"}}